Preview of NWS' New Version of Forecast
This preview is not operational and should not be used for support decisions.

Regional Weather Roundup (RWR)

Issued by National Weather Service (NWS)

                            
000
ASCA42 TJSJ 231010
RWRPR 
PUERTO RICO/U.S. VIRGIN ISLANDS HOURLY WEATHER ROUNDUP
NATIONAL WEATHER SERVICE SAN JUAN PR
600 AM AST TUE APR 23 2019

PRZ001>002-007>008-010-231100-
PUERTO RICO
  
CITY           SKY/WX    TMP DP  RH WIND       PRES   REMARKS
SAN JUAN LMM   PTCLDY    73  66  78 CALM      29.96R                  
CEIBA          MOCLDY    73  66  78 MISG      29.97R                  
$$

VIZ001>002-231100-
U.S. VIRGIN ISLANDS
  
CITY           SKY/WX    TMP DP  RH WIND       PRES   REMARKS
CHARLOTTE AMA  MOCLDY    75  66  73 NE9       29.95R                  
CHRISTIANSTED  CLEAR     68  64  88 N5        29.96R                  
$$

HOURLY WEATHER ROUNDUP FOR THE NEWS MEDIA
  
CITY           SKY/WX    TMP DP  RH WIND       PRES   REMARKS
ORLANDO        FAIR      61  55  81 CALM      30.11S                  
NEW YORK       FAIR      57  54  89 W8        29.98S                  
NEWARK         FAIR      56  49  77 W6        29.98S                  
CHICAGO        DRIZZLE   54  51  90 W18G29    29.87R                  
HARTFORD       CLOUDY    47  47 100 VRB5      29.89R FOG              
BOSTON         CLOUDY    50  47  89 N14       29.92                   
DALLAS         CLOUDY    68  60  75 S12       29.99S                  
PHILADELPHIA   FAIR      55  48  77 SW3       30.02S                  
LOS ANGELES    CLEAR     58  54  86 E3        29.96F                  
WASHINGTON DC  FAIR      48  44  86 SW3       30.07R